Location: Unspecified
(0.0000°N, 0.0000°E)
Time: 12:23:11
(UTC+00:00)

Envisat - Pass Details

Date: 19 June 2021
Orbit: 764 x 766 km, 98.1° (Epoch: 18 June)

Event Time Altitude Azimuth Distance (km) Brightness Sun altitude
Rises 04:54:43 0° 14° (NNE) 3,213 6.8 -15.3°
Reaches altitude 10° 04:57:01 10° 15° (NNE) 2,290 6.0 -14.7°
Maximum altitude 05:02:04 81° 102° (ESE) 777 3.1 -13.6°
Drops below altitude 10° 05:07:08 10° 189° (S) 2,301 5.2 -12.4°
Sets 05:09:27 0° 190° (S) 3,230 5.9 -11.9°
